Angleton, TX

4:14 AM CST on December 16, 2019 (GMT -0600)
Brazoria County

Weather History for KLBX - June, 2019

Change the Weather History Date:

Saturday, June 8, 2019

  Actual Average Record
Temperature  
Mean Temperature 82 °F -  
Max Temperature 93 °F 86 °F 95 °F (2003)
Min Temperature 72 °F 71 °F 66 °F (2003)
Cooling Degree Days 16    
Growing Degree Days 32 (Base 50)    
Moisture  
Dew Point 72 °F    
Average Humidity 73    
Maximum Humidity 94    
Minimum Humidity 50    
Precipitation  
Precipitation 0.00 in - - ()
Sea Level Pressure  
Sea Level Pressure 29.78 in    
Wind  
Wind Speed 2 mph (NW)    
Max Wind Speed 10 mph    
Max Gust Speed -    
Visibility 10 miles    
Events      
Averages and records for this station are not official NWS values.
T = Trace of Precipitation, MM = Missing Value Source: NWS Daily Summary

Daily Weather History Graph

Daily Weather History Graph

Search for Another Location

Airport or City:

Astronomy

Jun. 08, 2019 Rise Set
Actual Time 6:22 AM CDT 8:19 PM CDT
Civil Twilight 5:55 AM CDT 8:46 PM CDT
Nautical Twilight 5:22 AM CDT 9:19 PM CDT
Astronomical Twilight 4:48 AM CDT 9:53 PM CDT
Moon 11:41 AM CDT (6/8) 12:30 AM CDT (6/8)
Length of Visible Light 14h 51m
Length of Day
13h 57m
Waxing Crescent, 33% of the Moon is Illuminated
Jun 8
Waxing Crescent
Jun 10
First Quarter
Jun 17
Full
Jun 25
Last Quarter
Jul 2
New

Hourly Weather History & Observations

Time (CDT) Temp. Heat Index Dew Point Humidity Pressure Visibility Wind Dir Wind Speed Gust Speed Precip Events Conditions
12:53 AM 75.0 °F - 72.0 °F 90% 29.76 in 10.0 mi Calm Calm - N/A   Clear
1:53 AM 75.0 °F - 72.0 °F 90% 29.75 in 10.0 mi Calm Calm - N/A   Clear
2:53 AM 73.9 °F - 71.1 °F 91% 29.75 in 10.0 mi Calm Calm - N/A   Clear
3:53 AM 73.0 °F - 71.1 °F 93% 29.76 in 10.0 mi South 3.5 mph - N/A   Clear
4:53 AM 72.0 °F - 70.0 °F 93% 29.76 in 9.0 mi Calm Calm - N/A   Clear
5:53 AM 72.0 °F - 70.0 °F 93% 29.76 in 9.0 mi Calm Calm - N/A   Clear
6:53 AM 72.0 °F - 70.0 °F 93% 29.78 in 8.0 mi Calm Calm - N/A   Clear
7:53 AM 77.0 °F - 72.0 °F 84% 29.80 in 10.0 mi Calm Calm - N/A   Clear
8:53 AM 82.0 °F 86.3 °F 71.1 °F 69% 29.81 in 10.0 mi Calm Calm - N/A   Clear
9:53 AM 86.0 °F 90.1 °F 69.1 °F 57% 29.81 in 10.0 mi NNW 4.6 mph - N/A   Clear
10:53 AM 86.0 °F 90.1 °F 69.1 °F 57% 29.81 in 10.0 mi WNW 4.6 mph - N/A   Clear
11:53 AM 89.1 °F 95.0 °F 71.1 °F 55% 29.81 in 10.0 mi Variable 6.9 mph - N/A   Clear
12:53 PM 90.0 °F 96.4 °F 71.1 °F 54% 29.81 in 10.0 mi NW 9.2 mph - N/A   Clear
1:53 PM 90.0 °F 96.9 °F 72.0 °F 55% 29.80 in 10.0 mi NW 9.2 mph - N/A   Clear
2:53 PM 91.0 °F 98.2 °F 72.0 °F 53% 29.78 in 10.0 mi NNW 8.1 mph - N/A   Partly Cloudy
3:53 PM 91.0 °F 97.6 °F 71.1 °F 52% 29.77 in 10.0 mi NNW 8.1 mph - N/A   Clear
4:53 PM 91.9 °F 99.5 °F 72.0 °F 52% 29.77 in 10.0 mi NNW 10.4 mph - N/A   Clear
5:53 PM 91.9 °F 98.4 °F 71.1 °F 50% 29.76 in 10.0 mi NNW 9.2 mph - N/A   Clear
6:53 PM 91.0 °F 98.2 °F 72.0 °F 53% 29.76 in 10.0 mi NW 4.6 mph - N/A   Clear
7:53 PM 84.0 °F 93.7 °F 77.0 °F 79% 29.77 in 10.0 mi Calm Calm - N/A   Clear
8:53 PM 82.0 °F 89.4 °F 75.9 °F 82% 29.78 in 10.0 mi Calm Calm - N/A   Clear
9:53 PM 82.9 °F 89.4 °F 73.9 °F 74% 29.79 in 10.0 mi Calm Calm - N/A   Clear
10:53 PM 79.0 °F - 75.0 °F 88% 29.81 in 10.0 mi Calm Calm - N/A   Clear
11:53 PM 77.0 °F - 75.0 °F 94% 29.81 in 10.0 mi Calm Calm - N/A   Clear